GW2584 Weather Reports


time (UTC)temp
C
wind
direction
speed
KPH
gust
KPH
rain 1hr
cm
rain 24hr
cm
rain mn
cm
humidity
%
barometer
mb
20260508173056 11 344 3.2 14.5 0.00 0.00 0.00 56 1018.6
20260508171557 12 113 3.2 14.5 0.00 0.00 0.00 58 1018.6
20260508170100 12 153 3.2 14.5 0.00 0.00 0.00 58 1018.6
20260508164554 12 14 6.4 12.9 0.00 0.08 0.00 59 1018.6
20260508163106 12 39 4.8 12.9 0.00 0.08 0.00 57 1018.4
20260508161559 12 31 3.2 12.9 0.00 0.08 0.00 55 1018.4
20260508160056 12 224 1.6 14.5 0.00 0.08 0.00 52 1018.3
20260508154559 12 6 1.6 12.9 0.00 0.28 0.00 60 1018.4
20260508153107 12 12 4.8 11.3 0.00 0.28 0.00 56 1018.3
20260508151557 13 13 3.2 11.3 0.00 0.28 0.00 40 1018.1
20260508150056 13 34 1.6 6.4 0.00 0.28 0.00 47 1018.1
20260508144557 11 154 0.0 3.2 0.00 0.69 0.00 55 1018.1
20260508143116 10 187 1.6 4.8 0.00 0.69 0.00 62 1018.5
20260508141605 9 267 1.6 4.8 0.00 0.69 0.00 65 1018.7
20260508140115 9 0 0.0 1.6 0.00 0.69 0.00 67 1018.7
20260508134556 8 271 1.6 6.4 0.00 0.69 0.00 69 1018.9
20260508133102 8 273 0.0 4.8 0.00 0.69 0.00 71 1018.8
20260508131556 7 0 0.0 8.0 0.00 0.69 0.00 74 1018.9
20260508130057 6 214 1.6 12.9 0.00 0.69 0.00 83 1019.0
20260508124558 5 181 0.0 3.2 0.00 0.69 0.00 88 1019.2
20260508123054 3 0 0.0 1.6 0.00 0.69 0.00 87 1019.2
20260508121554 3 0 0.0 0.0 0.00 0.69 0.00 85 1019.2
20260508120112 3 0 0.0 1.6 0.00 0.69 0.00 85 1018.5
20260508114602 3 0 0.0 4.8 0.00 0.69 0.00 86 1017.8
20260508113109 3 0 0.0 3.2 0.00 0.69 0.00 86 1017.6
20260508111553 4 0 0.0 1.6 0.00 0.69 0.00 85 1017.6
20260508110103 3 0 0.0 0.0 0.00 0.69 0.00 84 1017.9
20260508104557 3 0 0.0 1.6 0.00 0.69 0.00 82 1017.8
20260508103100 5 117 0.0 4.8 0.00 0.69 0.00 72 1017.4
20260508101602 6 250 1.6 11.3 0.00 0.69 0.00 71 1016.7
20260508100129 4 240 1.6 4.8 0.00 0.69 0.00 81 1016.7
20260508094556 5 0 0.0 4.8 0.00 0.69 0.00 81 1016.5
20260508093056 5 235 1.6 11.3 0.00 0.69 0.00 82 1016.8
20260508091610 4 0 0.0 0.0 0.00 0.69 0.00 83 1016.5
20260508090056 5 248 0.0 1.6 0.00 0.69 0.00 83 1016.8
20260508084556 5 0 0.0 0.0 0.00 0.69 0.00 81 1017.0
20260508083056 5 0 0.0 3.2 0.00 0.69 0.00 80 1017.3
20260508081612 5 0 0.0 0.0 0.00 0.69 0.00 79 1017.4
20260508080100 5 0 0.0 1.6 0.00 0.69 0.00 77 1017.6
20260508074559 6 0 0.0 3.2 0.00 0.69 0.00 75 1017.7
20260508073106 5 0 0.0 1.6 0.00 0.69 0.00 75 1018.2
20260508071557 5 0 0.0 1.6 0.00 0.69 0.00 74 1017.8
20260508070056 6 0 1.6 4.8 0.00 0.69 0.00 72 1017.6
20260508064556 6 237 3.2 8.0 0.00 0.69 0.00 73 1017.4
20260508063101 5 0 0.0 1.6 0.00 0.69 0.00 74 1017.4
20260508061559 6 0 0.0 1.6 0.00 0.69 0.00 73 1017.6
20260508060111 7 0 3.2 9.7 0.00 0.69 0.00 68 1017.4
20260508054639 6 208 3.2 6.4 0.00 0.69 0.69 75 1017.5
20260508053055 6 212 3.2 8.0 0.00 0.69 0.69 76 1017.9
20260508051557 7 0 0.0 6.4 0.00 0.69 0.69 68 1018.4
20260508050059 7 0 0.0 6.4 0.00 0.69 0.69 67 1017.7
20260508044554 7 0 0.0 4.8 0.00 0.69 0.69 66 1017.6
20260508043059 7 29 0.0 9.7 0.00 0.69 0.69 63 1017.4
20260508041555 8 0 0.0 1.6 0.00 0.69 0.69 63 1017.2
20260508040058 8 203 0.0 1.6 0.00 0.69 0.69 64 1017.7
20260508034559 9 345 0.0 8.0 0.00 0.69 0.69 56 1018.0
20260508033055 9 0 0.0 3.2 0.00 0.69 0.69 52 1016.9
20260508031601 10 246 0.0 8.0 0.00 0.69 0.69 50 1016.5
20260508030104 10 0 0.0 6.4 0.00 0.69 0.69 52 1016.5
20260508024609 10 0 3.2 17.7 0.00 0.69 0.69 50 1016.5
20260508023057 9 207 8.0 20.9 0.00 0.69 0.69 56 1016.4
20260508021555 10 195 11.3 20.9 0.00 0.69 0.69 54 1016.4
20260508020105 11 135 8.0 22.5 0.00 0.69 0.69 47 1016.5
20260508014620 12 254 11.3 27.4 0.00 0.69 0.69 42 1016.5
20260508013101 12 219 1.6 4.8 0.00 0.69 0.69 38 1015.9
20260508011606 13 0 1.6 8.0 0.00 0.69 0.69 36 1015.9
20260508004557 13 0 0.0 0.0 0.00 0.69 0.69 36 1015.6
20260508003055 14 41 0.0 3.2 0.00 0.69 0.69 35 1015.3
20260508001601 14 0 0.0 11.3 0.00 0.69 0.69 31 1015.1
20260508000056 14 103 0.0 4.8 0.00 0.69 0.69 31 1015.1
20260507234553 13 68 0.0 1.6 0.00 0.69 0.69 32 1015.1
20260507233058 13 225 1.6 4.8 0.00 0.69 0.69 34 1015.3
20260507231555 13 0 3.2 6.4 0.00 0.69 0.69 32 1015.1
20260507230056 13 0 0.0 3.2 0.00 0.69 0.69 32 1015.4
20260507224604 13 0 0.0 6.4 0.00 0.69 0.69 34 1015.4
20260507223055 13 0 0.0 1.6 0.00 0.69 0.69 33 1015.4
20260507221558 13 0 3.2 6.4 0.00 0.69 0.69 35 1015.6
20260507220105 13 89 0.0 3.2 0.00 0.69 0.69 32 1015.7
20260507214607 13 0 1.6 8.0 0.00 0.69 0.69 31 1016.0
20260507213100 13 94 1.6 4.8 0.00 0.69 0.69 35 1016.1
20260507211603 13 0 1.6 3.2 0.00 0.69 0.69 34 1016.5
20260507210104 13 0 0.0 3.2 0.00 0.69 0.69 35 1016.7
20260507204600 13 23 0.0 8.0 0.00 0.69 0.69 33 1016.9
20260507203100 14 0 1.6 8.0 0.00 0.69 0.69 33 1017.0
20260507201556 14 347 1.6 6.4 0.00 0.69 0.69 33 1017.2
20260507200057 14 18 0.0 8.0 0.00 0.69 0.69 33 1017.1
20260507194557 14 199 0.0 9.7 0.00 0.69 0.69 32 1017.2
20260507193058 15 195 3.2 12.9 0.00 0.69 0.69 31 1017.3
20260507191559 14 186 3.2 16.1 0.00 0.69 0.69 34 1017.5
20260507190059 13 242 6.4 22.5 0.00 0.69 0.69 33 1017.5
20260507184556 14 189 0.0 20.9 0.00 0.69 0.69 35 1017.6
20260507183059 12 231 6.4 25.7 0.00 0.69 0.69 38 1017.6
20260507181559 10 211 8.0 22.5 0.00 0.69 0.69 42 1017.4
20260507174608 9 199 0.0 3.2 0.00 0.69 0.69 51 1018.1